Location: New Mesquite
(33.1168°N, 96.4336°W)
Time: 07:00:06
(UTC+00:00)

CZ-2C R/B - Pass Details

Date: 04 July 2022
Orbit: 783 x 871 km, 98.2° (Epoch: 11 August)

Event Time Altitude Azimuth Distance (km) Brightness Sun altitude
Rises 09:43:05 0° 125° (SE) 3,411 6.0 -17.6°
Reaches altitude 10° 09:46:09 10° 107° (ESE) 2,491 5.5 -17.1°
Maximum altitude 09:49:49 18° 66° (ENE) 1,979 5.6 -16.5°
Drops below altitude 10° 09:53:30 10° 24° (NNE) 2,518 6.2 -16.0°
Sets 09:56:37 0° 7° (N) 3,463 6.7 -15.5°
